Time,TemperatureF,DewpointF,PressureIn,WindDirection,WindDirectionDegrees,WindSpeedMPH,WindSpeedGustMPH,Humidity,HourlyPrecipIn,Conditions,Clouds,dailyrainin,SoftwareType,DateUTC
2013-01-17 00:04:00,38.0,36.0,29.85,NW,315,0.0,3.0,91,0.00,,,0.00,,2013-01-17 05:04:00,
2013-01-17 00:12:00,38.0,36.0,29.85,NW,315,0.0,3.0,91,0.00,,,0.00,,2013-01-17 05:12:00,
2013-01-17 00:22:00,38.0,36.0,29.85,West,270,0.0,4.0,91,0.00,,,0.00,,2013-01-17 05:22:00,
2013-01-17 00:33:00,38.0,36.0,29.88,West,270,0.0,4.0,91,0.00,,,0.00,,2013-01-17 05:33:00,
2013-01-17 00:42:00,38.0,36.0,29.88,West,270,0.0,4.0,91,0.00,,,0.00,,2013-01-17 05:42:00,
2013-01-17 00:53:00,38.0,36.0,29.85,West,270,0.0,0.0,91,0.00,,,0.00,,2013-01-17 05:53:00,
2013-01-17 01:02:00,38.0,36.0,29.88,SW,225,0.0,4.0,91,0.00,,,5.19,,2013-01-17 06:02:00,
2013-01-17 01:12:00,38.0,36.0,29.85,West,270,0.0,0.0,91,0.00,,,0.00,,2013-01-17 06:12:00,
2013-01-17 01:22:00,38.0,36.0,29.85,West,270,0.0,0.0,91,0.00,,,0.00,,2013-01-17 06:22:00,
2013-01-17 01:32:00,38.0,36.0,29.85,WSW,248,0.0,6.0,91,0.00,,,0.00,,2013-01-17 06:32:00,
2013-01-17 01:42:00,38.0,36.0,29.85,WSW,248,0.0,6.0,91,0.00,,,0.00,,2013-01-17 06:42:00,
2013-01-17 01:53:00,38.0,36.0,29.88,WSW,248,0.0,4.0,91,0.00,,,0.00,,2013-01-17 06:53:00,
2013-01-17 02:02:00,38.0,36.0,29.85,West,270,0.0,6.0,91,0.00,,,0.00,,2013-01-17 07:02:00,
2013-01-17 02:12:00,38.0,36.0,29.85,West,270,0.0,6.0,91,0.00,,,0.00,,2013-01-17 07:12:00,
2013-01-17 02:22:00,38.0,36.0,29.88,WNW,292,0.0,6.0,91,0.00,,,0.00,,2013-01-17 07:22:00,
2013-01-17 02:32:00,38.0,36.0,29.88,WSW,248,0.0,0.0,91,0.00,,,0.00,,2013-01-17 07:32:00,
2013-01-17 02:42:00,38.0,36.0,29.88,WSW,248,0.0,0.0,91,0.00,,,0.00,,2013-01-17 07:42:00,
2013-01-17 02:53:00,38.0,36.0,29.88,WNW,292,0.0,0.0,91,0.00,,,0.00,,2013-01-17 07:53:00,
2013-01-17 03:02:00,38.0,36.0,29.85,West,270,0.0,4.0,91,0.00,,,0.00,,2013-01-17 08:02:00,
2013-01-17 03:12:00,38.0,36.0,29.85,West,270,0.0,4.0,91,0.00,,,0.00,,2013-01-17 08:12:00,
2013-01-17 03:22:00,38.0,36.0,29.88,WSW,248,0.0,7.0,91,0.00,,,0.00,,2013-01-17 08:22:00,
2013-01-17 03:32:00,38.0,36.0,29.88,West,270,0.0,0.0,91,0.00,,,0.00,,2013-01-17 08:32:00,
2013-01-17 03:40:00,37.0,34.0,29.88,West,270,0.0,3.0,90,0.00,,,0.00,,2013-01-17 08:40:00,
2013-01-17 03:43:00,38.0,36.0,29.88,West,270,0.0,0.0,91,0.00,,,0.00,,2013-01-17 08:43:00,
2013-01-17 03:53:00,38.0,36.0,29.85,West,270,0.0,3.0,91,0.00,,,0.00,,2013-01-17 08:53:00,
2013-01-17 04:02:00,37.0,34.0,29.88,West,270,0.0,3.0,90,0.00,,,0.00,,2013-01-17 09:02:00,
2013-01-17 04:12:00,37.0,34.0,29.88,West,270,0.0,3.0,90,0.00,,,0.00,,2013-01-17 09:12:00,
2013-01-17 04:22:00,37.0,34.0,29.88,West,270,0.0,3.0,90,0.00,,,0.00,,2013-01-17 09:22:00,
2013-01-17 04:32:00,37.0,34.0,29.88,West,270,0.0,3.0,90,0.00,,,0.00,,2013-01-17 09:32:00,
2013-01-17 04:53:00,37.0,35.0,29.88,West,270,0.0,0.0,91,0.00,,,0.00,,2013-01-17 09:53:00,
2013-01-17 05:02:00,37.0,35.0,29.88,West,270,0.0,0.0,91,0.00,,,0.00,,2013-01-17 10:02:00,
2013-01-17 05:12:00,37.0,35.0,29.88,West,270,0.0,0.0,91,0.00,,,0.00,,2013-01-17 10:12:00,
2013-01-17 05:22:00,36.0,33.0,29.88,West,270,0.0,0.0,90,0.00,,,0.00,,2013-01-17 10:22:00,
2013-01-17 05:32:00,36.0,33.0,29.88,West,270,0.0,0.0,90,0.00,,,0.00,,2013-01-17 10:32:00,
2013-01-17 05:43:00,36.0,33.0,29.88,West,270,0.0,0.0,90,0.00,,,0.00,,2013-01-17 10:43:00,
2013-01-17 05:53:00,36.0,33.0,29.88,West,270,0.0,0.0,90,0.00,,,0.00,,2013-01-17 10:53:00,
2013-01-17 06:02:00,36.0,33.0,29.88,West,270,0.0,0.0,90,0.00,,,0.00,,2013-01-17 11:02:00,
2013-01-17 06:12:00,36.0,33.0,29.88,West,270,0.0,0.0,90,0.00,,,0.00,,2013-01-17 11:12:00,
2013-01-17 06:22:00,36.0,33.0,29.88,West,270,0.0,0.0,90,0.00,,,0.00,,2013-01-17 11:22:00,
2013-01-17 06:33:00,36.0,33.0,29.88,West,270,0.0,3.0,90,0.00,,,0.00,,2013-01-17 11:33:00,
2013-01-17 06:43:00,36.0,33.0,29.88,West,270,0.0,3.0,90,0.00,,,0.00,,2013-01-17 11:43:00,
2013-01-17 06:53:00,36.0,33.0,29.88,West,270,0.0,3.0,90,0.00,,,0.00,,2013-01-17 11:53:00,
2013-01-17 07:02:00,36.0,33.0,29.91,West,270,0.0,0.0,90,0.00,,,0.00,,2013-01-17 12:02:00,
2013-01-17 07:12:00,36.0,33.0,29.91,West,270,0.0,0.0,90,0.00,,,0.00,,2013-01-17 12:12:00,
2013-01-17 07:23:00,36.0,33.0,29.91,WNW,292,0.0,2.0,90,0.00,,,0.00,,2013-01-17 12:23:00,
2013-01-17 07:33:00,36.0,33.0,29.91,WNW,292,0.0,5.0,90,0.00,,,0.00,,2013-01-17 12:33:00,
2013-01-17 07:43:00,36.0,33.0,29.91,WNW,292,0.0,5.0,90,0.00,,,0.00,,2013-01-17 12:43:00,
2013-01-17 07:53:00,36.0,33.0,29.94,West,270,0.0,0.0,90,0.00,,,0.00,,2013-01-17 12:53:00,
2013-01-17 08:03:00,36.0,33.0,29.94,West,270,0.0,0.0,90,0.00,,,0.00,,2013-01-17 13:03:00,
2013-01-17 08:12:00,36.0,33.0,29.94,West,270,0.0,0.0,90,0.00,,,0.00,,2013-01-17 13:12:00,
2013-01-17 08:23:00,36.0,33.0,29.94,SW,225,0.0,3.0,90,0.00,,,0.00,,2013-01-17 13:23:00,
2013-01-17 08:33:00,36.0,33.0,29.94,West,270,0.0,0.0,90,0.00,,,0.00,,2013-01-17 13:33:00,
2013-01-17 08:43:00,36.0,33.0,29.94,West,270,0.0,0.0,90,0.00,,,0.00,,2013-01-17 13:43:00,
2013-01-17 08:53:00,37.0,34.0,29.97,North,0,0.0,0.0,90,0.00,,,0.00,,2013-01-17 13:53:00,
2013-01-17 09:03:00,37.0,34.0,29.97,SW,225,0.0,0.0,90,0.00,,,0.00,,2013-01-17 14:03:00,
2013-01-17 09:12:00,37.0,34.0,29.97,SW,225,0.0,0.0,90,0.00,,,0.00,,2013-01-17 14:12:00,
2013-01-17 09:23:00,38.0,35.0,30.00,WSW,248,0.0,6.0,89,0.00,,,0.00,,2013-01-17 14:23:00,
2013-01-17 09:33:00,38.0,35.0,30.00,WSW,248,0.0,6.0,89,0.00,,,0.00,,2013-01-17 14:33:00,
2013-01-17 09:43:00,38.0,35.0,30.00,WSW,248,0.0,6.0,89,0.00,,,0.00,,2013-01-17 14:43:00,
2013-01-17 09:53:00,38.0,35.0,30.00,West,270,0.0,6.0,88,0.00,,,0.00,,2013-01-17 14:53:00,
2013-01-17 10:03:00,38.0,35.0,29.97,WSW,248,0.0,0.0,88,0.00,,,0.00,,2013-01-17 15:03:00,
2013-01-17 10:13:00,38.0,35.0,29.97,WSW,248,0.0,0.0,88,0.00,,,0.00,,2013-01-17 15:13:00,
2013-01-17 10:23:00,38.0,34.0,30.00,NW,315,0.0,7.0,87,0.00,,,0.00,,2013-01-17 15:23:00,
2013-01-17 10:33:00,39.0,35.0,30.00,West,270,0.0,0.0,86,0.00,,,0.00,,2013-01-17 15:33:00,
2013-01-17 10:43:00,39.0,35.0,30.00,West,270,0.0,0.0,86,0.00,,,0.00,,2013-01-17 15:43:00,
2013-01-17 10:53:00,40.0,36.0,30.00,NW,315,0.0,6.0,85,0.00,,,0.00,,2013-01-17 15:53:00,
2013-01-17 11:03:00,40.0,36.0,30.00,WSW,248,0.0,5.0,84,0.00,,,0.00,,2013-01-17 16:03:00,
2013-01-17 11:12:00,40.0,36.0,30.00,WSW,248,0.0,5.0,84,0.00,,,0.00,,2013-01-17 16:12:00,
2013-01-17 11:23:00,41.0,36.0,29.97,SW,225,6.0,8.0,83,0.00,,,0.00,,2013-01-17 16:23:00,
2013-01-17 11:33:00,41.0,36.0,29.97,West,270,0.0,7.0,82,0.00,,,0.00,,2013-01-17 16:33:00,
2013-01-17 11:43:00,41.0,36.0,29.97,West,270,0.0,7.0,82,0.00,,,0.00,,2013-01-17 16:43:00,
2013-01-17 11:53:00,41.0,35.0,29.94,NW,315,0.0,6.0,80,0.00,,,0.00,,2013-01-17 16:53:00,
2013-01-17 12:03:00,41.0,35.0,29.97,NW,315,0.0,4.0,79,0.00,,,0.00,,2013-01-17 17:03:00,
2013-01-17 12:13:00,41.0,35.0,29.97,NW,315,0.0,4.0,79,0.00,,,0.00,,2013-01-17 17:13:00,
2013-01-17 12:23:00,42.0,36.0,29.97,North,0,0.0,4.0,78,0.00,,,0.00,,2013-01-17 17:23:00,
2013-01-17 12:33:00,41.0,35.0,29.97,WNW,292,0.0,0.0,78,0.00,,,5.19,,2013-01-17 17:33:00,
2013-01-17 12:43:00,41.0,35.0,29.97,WNW,292,0.0,0.0,78,0.00,,,5.19,,2013-01-17 17:43:00,
2013-01-17 12:53:00,42.0,35.0,29.97,SW,225,0.0,3.0,76,0.00,,,0.00,,2013-01-17 17:53:00,
2013-01-17 13:04:00,42.0,35.0,29.97,NW,315,0.0,5.0,76,0.00,,,0.00,,2013-01-17 18:04:00,
2013-01-17 13:12:00,42.0,35.0,29.97,NW,315,0.0,5.0,76,0.00,,,0.00,,2013-01-17 18:12:00,
2013-01-17 13:23:00,41.0,34.0,29.97,West,270,0.0,0.0,77,0.00,,,0.00,,2013-01-17 18:23:00,
2013-01-17 13:33:00,42.0,35.0,29.97,West,270,0.0,0.0,77,0.00,,,0.00,,2013-01-17 18:33:00,
2013-01-17 13:43:00,42.0,35.0,29.97,West,270,0.0,0.0,77,0.00,,,0.00,,2013-01-17 18:43:00,
2013-01-17 13:53:00,42.0,35.0,29.97,West,270,0.0,0.0,77,0.00,,,0.00,,2013-01-17 18:53:00,
2013-01-17 14:03:00,42.0,35.0,30.00,North,0,0.0,0.0,77,0.00,,,0.00,,2013-01-17 19:03:00,
2013-01-17 14:13:00,42.0,35.0,30.00,North,0,0.0,0.0,77,0.00,,,0.00,,2013-01-17 19:13:00,
2013-01-17 14:23:00,42.0,35.0,30.00,North,0,0.0,0.0,77,0.00,,,0.00,,2013-01-17 19:23:00,
2013-01-17 14:33:00,42.0,35.0,30.00,North,0,0.0,0.0,77,0.00,,,0.00,,2013-01-17 19:33:00,
2013-01-17 14:43:00,42.0,35.0,30.00,North,0,0.0,0.0,77,0.00,,,0.00,,2013-01-17 19:43:00,
2013-01-17 14:53:00,43.0,35.0,30.00,West,270,0.0,4.0,74,0.00,,,0.00,,2013-01-17 19:53:00,
2013-01-17 15:03:00,43.0,35.0,30.00,West,270,0.0,4.0,74,0.00,,,0.00,,2013-01-17 20:03:00,
2013-01-17 15:13:00,43.0,35.0,30.00,West,270,0.0,4.0,74,0.00,,,0.00,,2013-01-17 20:13:00,
2013-01-17 15:23:00,42.0,34.0,30.00,North,0,0.0,0.0,74,0.00,,,0.00,,2013-01-17 20:23:00,
2013-01-17 15:33:00,42.0,34.0,30.00,North,0,0.0,0.0,74,0.00,,,0.00,,2013-01-17 20:33:00,
2013-01-17 15:43:00,42.0,34.0,30.00,North,0,0.0,0.0,74,0.00,,,0.00,,2013-01-17 20:43:00,
2013-01-17 15:54:00,42.0,34.0,30.00,North,0,0.0,0.0,74,0.00,,,0.00,,2013-01-17 20:54:00,
2013-01-17 16:03:00,42.0,34.0,30.00,North,0,0.0,0.0,74,0.00,,,0.00,,2013-01-17 21:03:00,
2013-01-17 16:13:00,42.0,34.0,30.00,North,0,0.0,0.0,74,0.00,,,0.00,,2013-01-17 21:13:00,
2013-01-17 16:23:00,42.0,35.0,30.00,North,0,0.0,0.0,76,0.00,,,0.00,,2013-01-17 21:23:00,
2013-01-17 16:34:00,42.0,35.0,30.00,North,0,0.0,0.0,76,0.00,,,0.00,,2013-01-17 21:34:00,
2013-01-17 16:43:00,42.0,35.0,30.00,North,0,0.0,0.0,76,0.00,,,0.00,,2013-01-17 21:43:00,
2013-01-17 16:53:00,42.0,35.0,30.03,North,0,0.0,0.0,75,0.00,,,0.00,,2013-01-17 21:53:00,
2013-01-17 17:03:00,42.0,35.0,30.03,North,0,0.0,0.0,75,0.00,,,0.00,,2013-01-17 22:03:00,
2013-01-17 17:12:00,42.0,35.0,30.03,North,0,0.0,0.0,75,0.00,,,0.00,,2013-01-17 22:12:00,
2013-01-17 17:23:00,41.0,34.0,30.03,NNW,338,0.0,0.0,77,0.00,,,0.00,,2013-01-17 22:23:00,
2013-01-17 17:33:00,41.0,34.0,30.03,NNW,338,0.0,0.0,77,0.00,,,0.00,,2013-01-17 22:33:00,
2013-01-17 17:43:00,41.0,34.0,30.03,NNW,338,0.0,0.0,77,0.00,,,0.00,,2013-01-17 22:43:00,
2013-01-17 17:53:00,40.0,34.0,30.03,NNW,338,0.0,0.0,78,0.00,,,0.00,,2013-01-17 22:53:00,
2013-01-17 18:03:00,40.0,34.0,30.03,NNW,338,0.0,0.0,78,0.00,,,0.00,,2013-01-17 23:03:00,
2013-01-17 18:12:00,40.0,34.0,30.03,NNW,338,0.0,0.0,78,0.00,,,0.00,,2013-01-17 23:12:00,
2013-01-17 18:23:00,40.0,34.0,30.03,NNW,338,0.0,0.0,78,0.00,,,0.00,,2013-01-17 23:23:00,
2013-01-17 18:33:00,40.0,34.0,30.03,NNW,338,0.0,0.0,78,0.00,,,0.00,,2013-01-17 23:33:00,
2013-01-17 18:43:00,40.0,34.0,30.03,NNW,338,0.0,0.0,78,0.00,,,0.00,,2013-01-17 23:43:00,
2013-01-17 18:53:00,40.0,34.0,30.06,NNW,338,0.0,0.0,80,0.00,,,0.00,,2013-01-17 23:53:00,
2013-01-17 19:03:00,40.0,34.0,30.06,NNW,338,0.0,0.0,80,0.00,,,0.00,,2013-01-18 00:03:00,
2013-01-17 19:12:00,40.0,34.0,30.06,NNW,338,0.0,0.0,80,0.00,,,0.00,,2013-01-18 00:12:00,
2013-01-17 19:23:00,40.0,34.0,30.06,NNW,338,0.0,0.0,80,0.00,,,0.00,,2013-01-18 00:23:00,
2013-01-17 19:32:00,40.0,34.0,30.06,NNW,338,0.0,0.0,80,0.00,,,0.00,,2013-01-18 00:32:00,
2013-01-17 19:42:00,40.0,34.0,30.06,NNW,338,0.0,0.0,80,0.00,,,0.00,,2013-01-18 00:42:00,
2013-01-17 19:52:00,39.0,34.0,30.06,North,0,0.0,0.0,81,0.00,,,0.00,,2013-01-18 00:52:00,
2013-01-17 20:03:00,39.0,34.0,30.06,NW,315,0.0,0.0,81,0.00,,,0.00,,2013-01-18 01:03:00,
2013-01-17 20:12:00,39.0,34.0,30.06,NW,315,0.0,0.0,81,0.00,,,0.00,,2013-01-18 01:12:00,
2013-01-17 20:23:00,39.0,34.0,30.06,NNW,338,0.0,0.0,81,0.00,,,0.00,,2013-01-18 01:23:00,
2013-01-17 20:33:00,39.0,34.0,30.06,NNW,338,0.0,0.0,81,0.00,,,0.00,,2013-01-18 01:33:00,
2013-01-17 20:43:00,39.0,34.0,30.06,NNW,338,0.0,0.0,81,0.00,,,0.00,,2013-01-18 01:43:00,
2013-01-17 20:53:00,39.0,33.0,30.03,NNW,338,0.0,0.0,80,0.00,,,0.00,,2013-01-18 01:53:00,
2013-01-17 21:03:00,39.0,33.0,30.03,North,0,0.0,0.0,79,0.00,,,0.00,,2013-01-18 02:03:00,
2013-01-17 21:12:00,39.0,33.0,30.03,North,0,0.0,0.0,79,0.00,,,0.00,,2013-01-18 02:12:00,
2013-01-17 21:22:00,39.0,32.0,30.03,NNE,22,0.0,0.0,77,0.00,,,0.00,,2013-01-18 02:22:00,
2013-01-17 21:33:00,39.0,32.0,30.03,NNE,22,0.0,0.0,77,0.00,,,0.00,,2013-01-18 02:33:00,
2013-01-17 21:42:00,39.0,32.0,30.03,NNE,22,0.0,0.0,77,0.00,,,0.00,,2013-01-18 02:42:00,
2013-01-17 21:53:00,39.0,32.0,30.03,NNE,22,0.0,0.0,76,0.00,,,0.00,,2013-01-18 02:53:00,
2013-01-17 22:02:00,39.0,32.0,30.03,NNE,22,0.0,0.0,76,0.00,,,0.00,,2013-01-18 03:02:00,
2013-01-17 22:13:00,39.0,32.0,30.03,NNE,22,0.0,0.0,76,0.00,,,0.00,,2013-01-18 03:13:00,
2013-01-17 22:23:00,38.0,31.0,30.03,North,0,0.0,0.0,75,0.00,,,0.00,,2013-01-18 03:23:00,
2013-01-17 22:33:00,38.0,31.0,30.03,North,0,0.0,0.0,76,0.00,,,0.00,,2013-01-18 03:33:00,
2013-01-17 22:43:00,38.0,31.0,30.03,North,0,0.0,0.0,76,0.00,,,0.00,,2013-01-18 03:43:00,
2013-01-17 22:53:00,38.0,31.0,30.06,North,0,0.0,0.0,75,0.00,,,0.00,,2013-01-18 03:53:00,
2013-01-17 23:02:00,38.0,31.0,30.03,NW,315,0.0,5.0,75,0.00,,,0.00,,2013-01-18 04:02:00,
2013-01-17 23:12:00,38.0,31.0,30.03,NW,315,0.0,5.0,75,0.00,,,0.00,,2013-01-18 04:12:00,
2013-01-17 23:22:00,38.0,31.0,30.03,North,0,0.0,0.0,76,0.00,,,0.00,,2013-01-18 04:22:00,
2013-01-17 23:33:00,37.0,30.0,30.00,NW,315,4.0,4.0,75,0.00,,,0.00,,2013-01-18 04:33:00,
2013-01-17 23:42:00,37.0,30.0,30.00,NW,315,4.0,4.0,75,0.00,,,0.00,,2013-01-18 04:42:00,
2013-01-17 23:53:00,36.0,29.0,30.00,West,270,0.0,0.0,75,0.00,,,0.00,,2013-01-18 04:53:00,